Waarnemingen

Advertentie
Mijn weer
Metz-Nancy-Lorraine, Frankrijk (7093): temperatuur & dauwpunt: 13.04.2019 06:00:00 - 19.04.2019 06:00:00 (CEST)Metz-Nancy-Lorraine, Frankrijk (7093): windsnelheid & windstoten: 13.04.2019 06:00:00 - 19.04.2019 06:00:00 (CEST)Metz-Nancy-Lorraine, Frankrijk (7093): windrichting: 13.04.2019 06:00:00 - 19.04.2019 06:00:00 (CEST)Metz-Nancy-Lorraine, Frankrijk (7093): luchtdruk: 13.04.2019 06:00:00 - 19.04.2019 06:00:00 (CEST)Metz-Nancy-Lorraine, Frankrijk (7093): zicht: 13.04.2019 06:00:00 - 19.04.2019 06:00:00 (CEST)Metz-Nancy-Lorraine, Frankrijk (7093): Zonneschijnduur: 13.04.2019 06:00:00 - 19.04.2019 06:00:00 (CEST)Metz-Nancy-Lorraine, Frankrijk (7093): neerslag: 13.04.2019 06:00:00 - 19.04.2019 06:00:00 (CEST)
Datum & Tijd tt [°C] td [°C] ff [km/u] ff [kn] fx [km/u] fx [kn] dd ppp [hPa] vv [km] sd [min] rr [mm]
19.04.2019 06:00:00 8,6 3,4 5 3 6 3 NO 1025,0 42 0 0,0
19.04.2019 05:00:00 8,6 3,6 5 3 14 8 ONO 1024,5 43 0 0,0
19.04.2019 04:00:00 11,2 3,7 3 2 9 5 ONO 1023,8 51 0 0,0
19.04.2019 03:00:00 11,6 4,3 10 5 27 15 O 1023,5 47 0 0,0
19.04.2019 02:00:00 12,7 4,4 21 12 30 16 O 1023,0 44 0 0,0
19.04.2019 01:00:00 13,5 4,9 22 12 28 15 O 1022,8 47 0 0,0
19.04.2019 00:00:00 13,4 5,0 17 9 23 12 O 1022,7 49 0 0,0
18.04.2019 23:00:00 13,5 4,9 21 11 23 12 O 1022,3 45 0 0,0
18.04.2019 22:00:00 14,3 5,4 18 10 25 13 O 1022,3 46 0 0,0
18.04.2019 21:00:00 15,4 5,6 18 10 27 14 O 1021,7 46 6 0,0
18.04.2019 20:00:00 17,7 6,5 15 8 28 15 ONO 1021,0 42 60 0,0
18.04.2019 19:00:00 20,4 6,7 21 11 31 17 ONO 1020,3 45 60 0,0
18.04.2019 18:00:00 21,3 6,8 20 11 34 19 O 1020,0 28 60 0,0
18.04.2019 17:00:00 21,5 5,4 21 11 33 18 O 1020,0 25 60 0,0
18.04.2019 16:00:00 21,3 4,8 17 9 35 19 ONO 1020,1 24 60 0,0
18.04.2019 15:00:00 20,8 4,4 21 12 35 19 O 1020,3 23 60 0,0
18.04.2019 14:00:00 20,1 4,9 21 11 34 18 O 1020,6 23 60 0,0
18.04.2019 13:00:00 18,5 5,3 18 10 36 20 O 1021,2 23 60 0,0
18.04.2019 12:00:00 16,9 5,5 17 9 30 16 O 1021,7 20 60 0,0
18.04.2019 11:00:00 15,3 4,6 23 12 34 19 O 1022,2 20 60 0,0
18.04.2019 10:00:00 13,3 4,4 16 9 28 15 OZO 1022,7 23 60 0,0
18.04.2019 09:00:00 10,9 5,4 6 3 9 5 W 1022,6 19 60 0,0
18.04.2019 08:00:00 9,1 3,7 5 3 13 7 NO 1022,7 14 57 0,0
18.04.2019 07:00:00 7,1 4,6 3 1 18 10 W 1022,2 11 0 0,0
18.04.2019 06:00:00 7,5 4,4 5 3 16 8 ONO 1021,7 15 0 0,0
18.04.2019 05:00:00 7,0 5,1 2 1 8 5 NNW 1021,9 11 0 0,0
18.04.2019 04:00:00 8,5 5,6 3 2 11 6 O 1021,7 12 0 0,0
18.04.2019 03:00:00 9,1 6,5 3 2 12 7 NW 1021,1 11 0 0,0
18.04.2019 02:00:00 9,8 6,7 2 1 16 9 NO 1021,0 12 0 0,0
18.04.2019 01:00:00 9,5 7,1 14 7 19 10 ONO 1021,0 12 0 0,0
18.04.2019 00:00:00 11,5 8,2 14 8 19 11 ONO 1020,9 17 0 0,0
17.04.2019 23:00:00 11,4 8,4 16 9 26 14 O 1021,0 20 0 0,0
17.04.2019 22:00:00 12,1 8,8 18 10 25 14 O 1020,7 41 0 0,0
17.04.2019 21:00:00 12,3 8,8 16 9 24 13 O 1020,3 54 1 0,0
17.04.2019 20:00:00 15,4 8,4 16 9 23 12 O 1019,7 58 60 0,0
17.04.2019 19:00:00 17,2 8,3 18 10 29 16 O 1019,5 51 51 0,0
17.04.2019 18:00:00 17,1 8,5 13 7 24 13 O 1019,8 58 39 0,0
17.04.2019 17:00:00 17,2 8,3 11 6 24 13 O 1020,0 49 32 0,0
17.04.2019 16:00:00 16,6 8,8 14 8 24 13 O 1020,2 49 20 0,0
17.04.2019 15:00:00 16,0 9,0 13 7 23 12 O 1020,7 20 21 0,0
17.04.2019 14:00:00 15,2 9,1 10 5 19 11 O 1021,1 32 34 0,0
17.04.2019 13:00:00 13,5 9,3 11 6 18 10 O 1021,6 18 19 0,0
17.04.2019 12:00:00 13,3 9,5 8 5 17 9 ZZO 1021,8 12 3 0,0
17.04.2019 11:00:00 12,2 8,8 5 3 15 8 Z 1022,0 13 12 0,0
17.04.2019 10:00:00 11,1 9,5 8 4 12 7 Z 1021,9 7 0 0,0
17.04.2019 09:00:00 10,3 9,5 8 4 14 8 ZO 1021,6 5 0 0,0
17.04.2019 08:00:00 8,8 8,8 8 4 16 9 ZO 1021,6 2,9 22 0,0
17.04.2019 07:00:00 7,5 7,5 10 5 12 6 ZZO 1021,2 2,1 0 0,0
17.04.2019 06:00:00 7,1 7,0 7 4 11 6 Z 1020,9 2,0 0 0,0
17.04.2019 05:00:00 8,1 8,1 9 5 15 8 Z 1020,5 2,4 0 0,0
17.04.2019 04:00:00 8,8 8,8 10 5 16 8 ZZW 1020,3 3,0 0 0,0
17.04.2019 03:00:00 9,0 9,0 12 6 19 11 ZZW 1020,1 3,2 0 0,0
17.04.2019 02:00:00 9,3 9,0 15 8 22 12 ZW 1020,1 6 0 0,0
17.04.2019 01:00:00 9,9 9,9 13 7 23 13 ZW 1019,8 11 0 0,0
17.04.2019 00:00:00 10,0 10,0 13 7 24 13 Z 1019,3 1,9 0 0,8
16.04.2019 23:00:00 9,8 9,8 17 9 32 17 ZZO 1019,0 4,7 0 0,0
16.04.2019 22:00:00 9,8 9,8 18 10 27 15 ZZO 1019,0 3,4 0 0,7
16.04.2019 21:00:00 9,8 9,7 17 9 29 16 ZO 1018,7 4,5 0 0,6
16.04.2019 20:00:00 9,9 9,4 18 10 29 16 ZO 1018,3 9 0 0,8
16.04.2019 19:00:00 9,9 9,1 21 11 33 18 ZZO 1018,1 8 0 0,8
16.04.2019 18:00:00 10,5 9,4 15 8 27 15 ZZO 1017,9 7 0 1,2
16.04.2019 17:00:00 10,9 9,2 17 9 26 14 ZZO 1017,8 6 0 0,8
16.04.2019 16:00:00 11,8 9,0 19 10 26 14 ZZO 1017,5 11 0 0,6
16.04.2019 15:00:00 11,5 8,9 14 7 28 15 ZZW 1017,8 11 0 0,6
16.04.2019 14:00:00 11,4 8,3 17 9 32 17 Z 1017,6 22 0 0,0
16.04.2019 13:00:00 12,3 7,4 17 9 36 20 ZZW 1017,3 19 0 0,0
16.04.2019 12:00:00 12,2 6,7 30 16 41 22 ZW 1017,3 35 0 0,0
16.04.2019 11:00:00 13,5 6,1 19 10 29 16 ZZW 1016,6 33 21 0,0
16.04.2019 10:00:00 12,2 6,0 14 8 22 12 ZZO 1016,4 20 21 0,0
16.04.2019 09:00:00 11,0 5,1 15 8 24 13 ZZO 1016,2 20 60 0,0
16.04.2019 08:00:00 8,6 4,4 16 9 24 13 ZZO 1016,1 15 54 0,0
16.04.2019 07:00:00 5,5 2,7 20 11 24 13 ZO 1016,0 12 0 0,0
16.04.2019 06:00:00 6,3 2,2 18 10 27 15 OZO 1015,8 13 0 0,0
16.04.2019 05:00:00 6,5 2,2 21 11 24 13 OZO 1016,0 13 0 0,0
16.04.2019 04:00:00 6,6 2,3 20 11 24 13 OZO 1016,1 12 0 0,0
16.04.2019 03:00:00 6,6 2,7 20 11 27 15 OZO 1016,1 13 0 0,0
16.04.2019 02:00:00 7,5 2,8 20 11 24 13 O 1016,2 13 0 0,0
16.04.2019 01:00:00 7,8 3,1 18 10 23 13 O 1016,3 12 0 0,0
16.04.2019 00:00:00 8,8 3,4 19 10 25 13 O 1016,2 13 0 0,0
15.04.2019 23:00:00 9,3 3,9 17 9 20 11 O 1016,3 13 0 0,0
15.04.2019 22:00:00 9,6 4,0 14 8 18 10 O 1016,5 12 0 0,0
15.04.2019 21:00:00 10,1 4,9 13 7 16 9 ONO 1016,5 11 2 0,0
15.04.2019 20:00:00 13,3 5,2 11 6 35 19 O 1016,2 13 34 0,0
15.04.2019 19:00:00 15,5 4,8 21 11 41 22 O 1016,2 15 60 0,0
15.04.2019 18:00:00 16,1 5,1 29 16 50 27 O 1016,6 15 60 0,0
15.04.2019 17:00:00 16,0 5,0 32 17 48 26 O 1017,2 15 60 0,0
15.04.2019 16:00:00 15,7 4,1 32 18 49 26 OZO 1017,9 15 60 0,0
15.04.2019 15:00:00 16,0 4,4 22 12 46 25 O 1018,8 14 55 0,0
15.04.2019 14:00:00 14,3 4,8 28 15 45 25 O 1019,8 10 60 0,0
15.04.2019 13:00:00 12,7 3,9 25 14 45 24 O 1020,7 10 60 0,0
15.04.2019 12:00:00 11,7 2,7 22 12 34 19 ONO 1021,6 9 60 0,0
15.04.2019 11:00:00 9,4 2,5 21 12 29 16 O 1022,8 9 60 0,0
15.04.2019 10:00:00 6,9 1,4 16 9 26 14 ONO 1023,8 9 60 0,0
15.04.2019 09:00:00 4,0 0,7 12 6 16 9 NNO 1024,3 11 60 0,0
15.04.2019 08:00:00 1,4 -0,8 5 3 8 4 NNW 1025,1 9 52 0,0
15.04.2019 07:00:00 -0,3 -1,4 4 2 13 7 O 1025,0 9 0 0,0
15.04.2019 06:00:00 -0,6 -1,9 9 5 16 9 O 1024,9 8 0 0,0
15.04.2019 05:00:00 0,8 -0,8 16 8 21 12 O 1024,9 11 0 0,0
15.04.2019 04:00:00 0,6 -0,9 17 9 23 12 O 1025,1 12 0 0,0
15.04.2019 03:00:00 1,2 -1,0 11 6 21 12 O 1025,4 14 0 0,0
15.04.2019 02:00:00 2,2 -0,9 16 9 22 12 O 1025,3 14 0 0,0
15.04.2019 01:00:00 2,7 -0,9 16 8 22 12 O 1025,0 13 0 0,0
15.04.2019 00:00:00 4,3 -0,7 17 9 26 14 O 1024,3 11 0 0,0
14.04.2019 23:00:00 3,2 -0,3 13 7 16 9 ONO 1024,1 7 0 0,0
14.04.2019 22:00:00 5,6 -0,1 4 2 8 5 NNO 1023,9 8 0 0,0
14.04.2019 21:00:00 6,2 0,3 5 3 10 5 W 1023,7 9 0 0,0
14.04.2019 20:00:00 7,0 0,9 10 5 17 9 NW 1023,1 8 42 0,0
14.04.2019 19:00:00 8,4 0,4 8 5 19 11 NNO 1022,4 10 60 0,0
14.04.2019 18:00:00 8,7 0,6 8 4 22 12 NO 1022,2 9 47 0,0
14.04.2019 17:00:00 7,2 -0,1 13 7 30 16 NNO 1022,2 9 7 0,0
14.04.2019 16:00:00 7,1 -0,4 16 8 23 12 NNO 1022,4 10 11 0,0
14.04.2019 15:00:00 6,8 -0,9 8 4 23 12 NNO 1022,7 11 3 0,0
14.04.2019 14:00:00 6,2 -1,7 11 6 24 13 NO 1022,6 14 5 0,0
14.04.2019 13:00:00 4,9 -1,8 11 6 21 11 NO 1022,7 13 0 0,0
14.04.2019 12:00:00 4,1 -0,5 9 5 23 12 N 1022,7 11 10 0,0
14.04.2019 11:00:00 3,6 -0,6 13 7 23 13 NNO 1022,4 9 35 0,0
14.04.2019 10:00:00 1,4 -0,5 14 7 19 10 NNO 1022,2 6 7 0,0
14.04.2019 09:00:00 -0,8 -2,1 6 3 11 6 N 1022,5 4,5 22 0,0
14.04.2019 08:00:00 -1,5 -3,1 6 3 11 6 N 1022,4 4,3 50 0,0
14.04.2019 07:00:00 -2,6 -4,3 8 4 11 6 NNO 1022,2 4,2 0 0,0
14.04.2019 06:00:00 -1,9 -3,3 6 4 9 5 N 1022,0 4,8 0 0,0
14.04.2019 05:00:00 -1,7 -3,1 5 3 10 6 N 1022,1 6 0 0,0
14.04.2019 04:00:00 -1,4 -3,0 7 4 15 8 N 1021,8 6 0 0,0
14.04.2019 03:00:00 -1,5 -3,5 9 5 13 7 NNO 1021,8 7 0 0,0
14.04.2019 02:00:00 -1,4 -3,0 9 5 13 7 NO 1022,1 8 0 0,0
14.04.2019 01:00:00 -1,0 -3,0 7 4 15 8 NNO 1022,4 9 0 0,0
14.04.2019 00:00:00 0,1 -2,1 6 4 17 9 NNO 1022,4 11 0 0,0
13.04.2019 23:00:00 1,0 -2,2 10 5 16 8 N 1022,6 15 0 0,0
13.04.2019 22:00:00 1,6 -2,2 8 4 13 7 N 1022,6 19 0 0,0
13.04.2019 21:00:00 2,1 -1,3 10 5 23 13 N 1022,4 20 0 0,0
13.04.2019 20:00:00 2,9 -0,7 19 10 34 18 N 1021,9 14 8 0,0
13.04.2019 19:00:00 4,3 -2,8 6 3 41 22 NO 1021,5 23 1 0,0
13.04.2019 18:00:00 5,7 -4,8 13 7 29 16 N 1021,2 28 16 0,0
13.04.2019 17:00:00 6,1 -4,1 16 9 30 16 N 1021,3 20 23 0,0
13.04.2019 16:00:00 5,3 -3,5 18 10 29 16 NO 1021,7 23 0 0,0
13.04.2019 15:00:00 4,9 -3,6 14 8 35 19 NO 1022,0 23 7 0,0
13.04.2019 14:00:00 5,9 -4,3 12 6 37 20 NNO 1021,8 20 33 0,0
13.04.2019 13:00:00 4,9 -6,1 16 8 29 16 N 1022,1 20 0 0,0
13.04.2019 12:00:00 4,3 -4,5 14 8 29 16 NNO 1022,3 22 38 0,0
13.04.2019 11:00:00 4,4 -3,9 21 11 39 21 NNO 1022,3 19 35 0,0
13.04.2019 10:00:00 3,1 -2,6 22 12 34 18 N 1022,6 17 3 0,0
13.04.2019 09:00:00 2,2 -2,7 18 10 30 16 N 1022,7 14 0 0,0
13.04.2019 08:00:00 2,0 -2,7 18 10 26 14 N 1022,5 15 0 0,0
13.04.2019 07:00:00 1,8 -2,3 16 9 23 12 N 1022,1 18 0 0,0
13.04.2019 06:00:00 1,9 -2,2 10 6 18 10 N 1021,8 19 0 0,0

tt = temperatuur
td = dauwpunt
ff = windsnelheid
fx = windstoten
dd = windrichting
ppp = luchtdruk
vv = zicht
sd = Zonneschijnduur
rr = neerslag

Weerstations in de omgeving